Simultaneous Nadir Overpasses (SNOs) Predictions

Prediction of SNOs between NOAA-15 and METOP-C Satellite Orbit:

Table of predicted SNOs for the next 14.0 days since TLE Epoch: 3/27/2021
Index Date (NOAA-15) Time (NOAA-15) Lat,Lon (NOAA-15) SZA (NOAA-15 ) Date (METOP-C) Time (METOP-C) Lat,Lon (METOP-C) SZA (METOP-C ) Distance(km) Time Diff (sec)
1 03/29/2021 18:45:37 -80.99, 115.54 101.01 03/29/2021 18:44:24 -80.99, 115.44 101.05 2.04 73
2 03/29/2021 19:36:12 81.00, -77.11 78.98 03/29/2021 19:35:05 80.99, -77.23 78.94 2.30 67
3 03/29/2021 20:26:39 -80.99, 90.39 101.03 03/29/2021 20:25:45 -81.00, 90.32 101.05 1.48 54
4 03/29/2021 21:17:14 80.99,-102.26 78.96 03/29/2021 21:16:26 81.00,-102.35 78.94 1.70 48
5 03/29/2021 22:07:42 -81.00, 64.88 101.07 03/29/2021 22:07:07 -80.99, 64.83 101.10 1.61 35
6 03/29/2021 22:58:17 81.00,-127.78 78.92 03/29/2021 22:57:48 80.99,-127.84 78.89 1.72 29
7 03/29/2021 23:48:44 -81.00, 39.73 101.09 03/29/2021 23:48:28 -81.00, 39.70 101.10 0.46 16
8 03/30/2021 00:39:19 81.00,-152.93 78.90 03/30/2021 00:39:09 81.00,-152.96 78.89 0.54 10
9 03/30/2021 01:29:47 -81.01, 14.21 101.13 03/30/2021 01:29:50 -80.99, 14.21 101.14 1.77 3
10 03/30/2021 02:20:21 80.99,-178.08 78.88 03/30/2021 02:20:30 81.01,-178.08 78.90 1.80 9
11 03/30/2021 03:10:49 -81.00, -10.94 101.15 03/30/2021 03:11:11 -81.00, -10.91 101.14 0.57 22
12 03/30/2021 04:01:24 81.00, 156.39 78.84 03/30/2021 04:01:52 81.00, 156.43 78.85 0.63 28
13 03/30/2021 04:51:51 -81.00, -36.09 101.17 03/30/2021 04:52:32 -81.01, -36.03 101.14 1.75 41
14 03/30/2021 05:42:26 81.00, 131.24 78.82 03/30/2021 05:43:13 81.01, 131.31 78.85 1.76 47
15 03/30/2021 06:32:54 -81.01, -61.61 101.21 03/30/2021 06:33:54 -81.00, -61.52 101.19 1.60 60



Historial Predications of SNOs between NOAA-15 and METOP-C
